TimeAKDT,TemperatureF,Dew PointF,Humidity,Sea Level PressureIn,VisibilityMPH,Wind Direction,Wind SpeedMPH,Gust SpeedMPH,PrecipitationIn,Events,Conditions,WindDirDegrees,DateUTC
12:53 AM,48.0,46.0,93,29.91,10.0,Calm,Calm,-,N/A,,Clear,0,2013-05-27 08:53:00
1:53 AM,46.0,44.1,93,29.90,10.0,Calm,Calm,-,N/A,,Clear,0,2013-05-27 09:53:00
2:53 AM,48.0,46.0,93,29.89,10.0,Calm,Calm,-,N/A,,Clear,0,2013-05-27 10:53:00
3:53 AM,45.0,44.1,97,29.88,10.0,Calm,Calm,-,N/A,,Clear,0,2013-05-27 11:53:00
4:53 AM,45.0,43.0,93,29.88,10.0,Calm,Calm,-,N/A,,Clear,0,2013-05-27 12:53:00
5:53 AM,46.9,46.0,97,29.86,10.0,NW,3.5,-,N/A,,Clear,320,2013-05-27 13:53:00
6:53 AM,48.0,46.0,93,29.84,10.0,NW,3.5,-,N/A,,Clear,310,2013-05-27 14:53:00
7:53 AM,51.1,46.0,83,29.83,10.0,Calm,Calm,-,N/A,,Clear,0,2013-05-27 15:53:00
8:53 AM,51.1,46.9,86,29.81,10.0,Calm,Calm,-,N/A,,Clear,0,2013-05-27 16:53:00
9:53 AM,54.0,48.9,83,29.80,10.0,SW,3.5,-,N/A,,Clear,230,2013-05-27 17:53:00
10:53 AM,54.0,48.9,83,29.79,10.0,SW,5.8,-,N/A,,Clear,220,2013-05-27 18:53:00
11:53 AM,55.9,48.9,77,29.78,10.0,SW,5.8,-,N/A,,Clear,220,2013-05-27 19:53:00
12:53 PM,57.0,50.0,77,29.77,10.0,SSW,4.6,-,N/A,,Clear,210,2013-05-27 20:53:00
1:53 PM,57.9,50.0,75,29.75,10.0,SW,4.6,-,N/A,,Clear,230,2013-05-27 21:53:00
2:53 PM,57.9,48.9,72,29.74,10.0,SW,8.1,-,N/A,,Clear,230,2013-05-27 22:53:00
3:53 PM,57.9,48.9,72,29.72,10.0,SSW,8.1,-,N/A,,Scattered Clouds,210,2013-05-27 23:53:00
4:53 PM,60.1,50.0,69,29.70,10.0,SSW,9.2,-,N/A,,Scattered Clouds,200,2013-05-28 00:53:00
5:53 PM,57.9,51.1,78,29.70,10.0,SSW,6.9,-,N/A,,Clear,210,2013-05-28 01:53:00
6:53 PM,59.0,50.0,72,29.68,10.0,WSW,4.6,-,N/A,,Clear,250,2013-05-28 02:53:00
7:53 PM,57.9,50.0,75,29.67,10.0,NW,3.5,-,N/A,,Clear,310,2013-05-28 03:53:00
8:53 PM,55.0,50.0,83,29.67,10.0,NW,5.8,-,N/A,,Clear,310,2013-05-28 04:53:00
9:53 PM,53.1,50.0,89,29.66,10.0,WNW,3.5,-,N/A,,Scattered Clouds,300,2013-05-28 05:53:00
10:53 PM,55.0,50.0,83,29.65,10.0,WNW,3.5,-,N/A,,Scattered Clouds,300,2013-05-28 06:53:00
11:53 PM,54.0,48.9,83,29.63,10.0,Calm,Calm,-,0.00,,Clear,0,2013-05-28 07:53:00